Orbital Elements at Epoch 2459200.5 (2020-Dec-17.0) TDB
Reference: JPL 27 (heliocentric ecliptic J2000)
Element | Value | Uncertainty (1-sigma) | Units |
e | .1885590129189966 | 4.3601e-08 | |
a | 2.630702677658633 | 1.353e-08 | au |
q | 2.134659977475959 | 1.1506e-07 | au |
i | 14.77520324077954 | 5.2145e-06 | deg |
node | 174.5547849856345 | 1.3698e-05 | deg |
peri | 188.4551833882418 | 1.7027e-05 | deg |
M | 166.8631014348711 | 1.0163e-05 | deg |
tp | 2458478.123036738490 (2018-Dec-25.62303674) | 4.2241e-05 | TDB |
period | 1558.497382212729 4.27 | 1.2023e-05 3.292e-08 | d yr |
n | .2309917258179015 | 1.782e-09 | deg/d |
Q | 3.126745377841306 | 1.6081e-08 | au |
|
| | Orbit Determination Parameters
Additional Information
|